EW4427 Weather Reports


time (UTC)temp
C
wind
direction
speed
KPH
gust
KPH
rain 1hr
cm
rain 24hr
cm
rain mn
cm
humidity
%
barometer
mb
20260905212045 25 19 4.8 20.9 0.00 0.00 0.00 79 1015.7
20260905211602 25 44 3.2 20.9 0.00 0.00 0.00 78 1015.8
20260905211043 25 52 6.4 20.9 0.00 0.00 0.00 78 1015.8
20260905210542 25 26 3.2 17.7 0.00 0.00 0.00 78 1015.8
20260905210059 25 299 6.4 17.7 0.00 0.00 0.00 78 1015.7
20260905205544 25 19 4.8 16.1 0.00 0.00 0.00 78 1015.7
20260905205044 25 30 4.8 16.1 0.00 0.00 0.00 78 1015.7
20260905204555 25 360 8.0 16.1 0.00 0.00 0.00 77 1015.8
20260905204044 25 30 4.8 17.7 0.00 0.00 0.00 78 1015.7
20260905203542 25 42 4.8 17.7 0.00 0.00 0.00 78 1015.9
20260905203105 25 5 4.8 16.1 0.00 0.00 0.00 79 1015.9
20260905202542 26 33 4.8 17.7 0.00 0.00 0.00 79 1015.8
20260905202042 26 16 6.4 17.7 0.00 0.00 0.00 79 1015.8
20260905201615 26 92 4.8 17.7 0.00 0.00 0.00 79 1015.9
20260905201044 26 49 8.0 16.1 0.00 0.00 0.00 79 1015.9
20260905200544 26 25 3.2 19.3 0.00 0.00 0.00 78 1015.8
20260905195544 26 236 3.2 14.5 0.00 0.00 0.00 78 1015.9
20260905195044 26 321 4.8 14.5 0.00 0.00 0.00 77 1015.9
20260905194557 26 26 3.2 12.9 0.00 0.00 0.00 78 1015.7
20260905194047 26 12 3.2 9.7 0.00 0.00 0.00 78 1015.7
20260905193541 26 277 1.6 9.7 0.00 0.00 0.00 79 1015.8
20260905193114 26 30 3.2 9.7 0.00 0.00 0.00 79 1015.9
20260905192546 26 0 1.6 14.5 0.00 0.00 0.00 78 1015.9
20260905192045 26 14 3.2 14.5 0.00 0.00 0.00 78 1015.8
20260905191558 26 5 1.6 9.7 0.00 0.00 0.00 79 1015.8
20260905191045 26 42 3.2 9.7 0.00 0.00 0.00 79 1015.8
20260905190545 26 39 1.6 16.1 0.00 0.00 0.00 78 1015.8
20260905185545 26 345 3.2 9.7 0.00 0.00 0.00 79 1015.9
20260905185049 26 55 3.2 9.7 0.00 0.00 0.00 80 1015.8
20260905184606 26 26 1.6 6.4 0.00 0.00 0.00 80 1015.8
20260905184047 26 13 1.6 6.4 0.00 0.00 0.00 81 1015.8
20260905183546 25 18 0.0 6.4 0.00 0.00 0.00 83 1015.9
20260905183100 25 16 1.6 6.4 0.00 0.00 0.00 82 1016.0
20260905182545 25 18 1.6 6.4 0.00 0.00 0.00 82 1015.9
20260905182046 25 352 0.0 6.4 0.00 0.00 0.00 82 1016.0
20260905181609 25 24 1.6 6.4 0.00 0.00 0.00 82 1016.0
20260905181047 25 5 3.2 8.0 0.00 0.00 0.00 82 1016.0
20260905180546 25 0 1.6 8.0 0.00 0.00 0.00 83 1016.0
20260905180104 25 44 1.6 6.4 0.00 0.00 0.00 84 1016.0
20260905175546 25 0 0.0 3.2 0.00 0.00 0.00 84 1015.9
20260905175046 24 0 0.0 6.4 0.00 0.00 0.00 85 1015.8
20260905174605 24 0 0.0 11.3 0.00 0.00 0.00 84 1015.8
20260905174045 24 0 3.2 11.3 0.00 0.00 0.00 84 1016.0
20260905173546 24 17 0.0 4.8 0.00 0.00 0.00 85 1016.1
20260905173057 24 26 0.0 8.0 0.00 0.00 0.00 85 1016.1
20260905172545 24 0 1.6 8.0 0.00 0.00 0.00 85 1016.0
20260905172045 23 355 1.6 8.0 0.00 0.00 0.00 86 1016.0
20260905171604 23 0 0.0 6.4 0.00 0.00 0.00 86 1016.0
20260905171046 23 5 0.0 6.4 0.00 0.00 0.00 87 1016.0
20260905170546 23 0 0.0 4.8 0.00 0.00 0.00 87 1016.0
20260905170100 23 0 0.0 6.4 0.00 0.00 0.00 86 1016.1
20260905165545 23 350 1.6 6.4 0.00 0.00 0.00 86 1016.3
20260905165045 23 0 1.6 9.7 0.00 0.00 0.00 86 1016.2
20260905164558 23 351 0.0 9.7 0.00 0.00 0.00 86 1016.3
20260905164048 23 55 3.2 11.3 0.00 0.00 0.00 86 1016.3
20260905163545 23 45 3.2 11.3 0.00 0.00 0.00 87 1016.4
20260905163058 23 336 3.2 8.0 0.00 0.00 0.00 87 1016.2
20260905162545 23 25 0.0 6.4 0.00 0.00 0.00 88 1016.3
20260905162046 23 5 1.6 6.4 0.00 0.00 0.00 88 1016.2
20260905161605 23 0 1.6 6.4 0.00 0.00 0.00 88 1016.2
20260905161046 23 0 0.0 4.8 0.00 0.00 0.00 88 1016.2
20260905160547 23 42 1.6 4.8 0.00 0.00 0.00 89 1016.2
20260905160100 23 0 0.0 8.0 0.00 0.00 0.00 89 1016.2
20260905155545 23 5 3.2 9.7 0.00 0.00 0.00 89 1016.2
20260905155045 22 0 1.6 11.3 0.00 0.00 0.00 89 1016.1
20260905154616 22 21 1.6 11.3 0.00 0.00 0.00 90 1016.0
20260905154045 22 0 0.0 4.8 0.00 0.00 0.00 91 1016.0
20260905153545 22 0 0.0 4.8 0.00 0.00 0.00 92 1016.1
20260905153057 22 0 0.0 0.0 0.00 0.00 0.00 92 1016.0
20260905152545 22 0 0.0 6.4 0.00 0.00 0.00 92 1016.0
20260905152046 22 0 0.0 6.4 0.00 0.00 0.00 93 1016.0
20260905151605 22 0 0.0 4.8 0.00 0.00 0.00 93 1016.0
20260905151048 22 0 0.0 8.0 0.00 0.00 0.00 93 1015.8
20260905150545 22 5 1.6 8.0 0.00 0.00 0.00 93 1015.8
20260905150059 22 0 0.0 3.2 0.00 0.00 0.00 93 1015.8
20260905145546 22 0 0.0 3.2 0.00 0.00 0.00 94 1015.7
20260905145045 22 0 0.0 6.4 0.00 0.00 0.00 94 1015.7
20260905144558 22 0 0.0 6.4 0.00 0.00 0.00 94 1015.7
20260905144047 22 26 0.0 8.0 0.00 0.00 0.00 94 1015.6
20260905143545 22 0 0.0 8.0 0.00 0.00 0.00 94 1015.6
20260905143056 22 0 1.6 9.7 0.00 0.00 0.00 95 1015.4
20260905142545 21 0 1.6 11.3 0.00 0.00 0.00 95 1015.3
20260905142045 21 11 1.6 11.3 0.00 0.00 0.00 95 1015.4
20260905141559 21 0 0.0 8.0 0.00 0.00 0.00 95 1015.4
20260905141045 21 0 0.0 8.0 0.00 0.00 0.00 95 1015.4
20260905140546 21 0 0.0 8.0 0.00 0.00 0.00 95 1015.4
20260905135547 21 32 1.6 8.0 0.00 0.00 0.00 95 1015.2
20260905135046 21 0 0.0 9.7 0.00 0.00 0.00 96 1015.3
20260905134556 21 0 1.6 9.7 0.00 0.00 0.00 96 1015.3
20260905134045 21 0 0.0 6.4 0.00 0.00 0.00 96 1015.3
20260905133546 21 0 0.0 6.4 0.00 0.00 0.00 96 1015.3
20260905133056 21 0 1.6 6.4 0.00 0.00 0.00 96 1015.2
20260905132547 21 0 0.0 6.4 0.00 0.00 0.00 96 1015.3
20260905132100 21 0 0.0 6.4 0.00 0.00 0.00 96 1015.4
20260905131609 21 0 0.0 6.4 0.00 0.00 0.00 96 1015.5
20260905131044 21 0 0.0 6.4 0.00 0.00 0.00 96 1015.8
20260905130549 21 15 0.0 6.4 0.00 0.00 0.00 96 1015.6
20260905130101 21 0 1.6 6.4 0.00 0.00 0.00 96 1015.4
20260905125545 21 0 0.0 6.4 0.00 0.00 0.00 96 1015.3
20260905125044 21 0 0.0 6.4 0.00 0.00 0.00 96 1015.1
20260905124603 21 17 0.0 12.9 0.00 0.00 0.00 96 1015.1
20260905124043 21 22 1.6 12.9 0.00 0.00 0.00 96 1014.9
20260905123545 21 0 0.0 6.4 0.00 0.00 0.00 96 1014.9
20260905123106 21 0 0.0 3.2 0.00 0.00 0.00 96 1014.7
20260905122542 21 0 0.0 4.8 0.00 0.00 0.00 96 1014.6
20260905122045 21 0 0.0 6.4 0.00 0.00 0.00 96 1014.5
20260905121603 21 32 0.0 6.4 0.00 0.00 0.00 96 1014.4
20260905121045 21 0 1.6 9.7 0.00 0.00 0.00 96 1014.4
20260905120544 21 0 3.2 12.9 0.00 0.00 0.00 96 1014.4
20260905120100 21 326 1.6 12.9 0.00 0.00 0.00 96 1014.3
20260905115545 21 0 0.0 8.0 0.00 0.03 0.00 96 1014.3
20260905115044 21 50 0.0 9.7 0.00 0.03 0.00 96 1014.3
20260905114559 21 337 3.2 9.7 0.00 0.03 0.00 96 1014.2
20260905114044 21 15 1.6 9.7 0.00 0.03 0.00 96 1014.2
20260905113545 21 22 0.0 12.9 0.00 0.03 0.00 96 1014.0
20260905113058 21 24 4.8 12.9 0.00 0.03 0.00 95 1014.0
20260905112542 21 34 3.2 12.9 0.00 0.03 0.00 95 1013.9
20260905112042 21 16 3.2 11.3 0.00 0.03 0.00 95 1013.9
20260905111609 21 31 3.2 11.3 0.00 0.03 0.00 95 1013.9
20260905111042 21 0 0.0 9.7 0.00 0.03 0.00 95 1013.8
20260905110542 21 26 1.6 9.7 0.00 0.03 0.00 95 1013.8
20260905110100 21 0 0.0 8.0 0.00 0.03 0.00 95 1013.8
20260905105545 21 9 0.0 8.0 0.00 0.03 0.00 95 1013.6
20260905105047 21 0 0.0 8.0 0.00 0.03 0.00 95 1013.7
20260905104613 21 0 0.0 8.0 0.00 0.03 0.00 95 1013.6
20260905104045 21 350 0.0 6.4 0.00 0.03 0.00 95 1013.6
20260905103544 20 5 0.0 6.4 0.00 0.03 0.00 95 1013.7
20260905103109 20 0 0.0 0.0 0.00 0.03 0.00 95 1013.6
20260905102544 20 0 0.0 0.0 0.00 0.03 0.00 95 1013.7
20260905102042 20 0 0.0 0.0 0.00 0.03 0.00 95 1013.6
20260905101604 20 0 0.0 0.0 0.00 0.03 0.00 95 1013.6
20260905101045 20 0 0.0 0.0 0.00 0.03 0.00 95 1013.4
20260905100544 20 0 0.0 0.0 0.00 0.03 0.00 94 1013.4
20260905100106 20 0 0.0 0.0 0.00 0.03 0.00 94 1013.5
20260905095545 20 0 0.0 0.0 0.00 0.03 0.00 94 1013.5
20260905095042 20 0 0.0 0.0 0.00 0.03 0.00 94 1013.5
20260905094601 20 0 0.0 0.0 0.00 0.03 0.00 94 1013.4
20260905094044 20 0 0.0 0.0 0.00 0.03 0.00 94 1013.4
20260905093542 20 0 0.0 0.0 0.00 0.03 0.00 94 1013.5
20260905093054 20 0 0.0 0.0 0.00 0.03 0.00 94 1013.5
20260905092544 21 0 0.0 0.0 0.00 0.03 0.00 94 1013.4
20260905092042 21 0 0.0 0.0 0.00 0.03 0.00 94 1013.4
20260905091633 21 0 0.0 0.0 0.00 0.03 0.00 94 1013.5
20260905091044 21 0 0.0 0.0 0.00 0.03 0.00 94 1013.5
20260905090545 21 0 0.0 0.0 0.00 0.03 0.00 94 1013.6
20260905090058 21 0 0.0 0.0 0.00 0.03 0.00 94 1013.6
20260905085545 21 0 0.0 0.0 0.00 0.03 0.00 94 1013.6
20260905085042 21 0 0.0 0.0 0.00 0.03 0.00 94 1013.5
20260905084614 21 0 0.0 0.0 0.00 0.03 0.00 94 1013.5
20260905084042 21 0 0.0 0.0 0.00 0.03 0.00 94 1013.5
20260905083543 21 0 0.0 0.0 0.00 0.03 0.00 93 1013.3
20260905083059 21 0 0.0 0.0 0.00 0.03 0.00 94 1013.3
20260905082542 21 0 0.0 0.0 0.00 0.03 0.00 93 1013.1
20260905082042 21 0 0.0 0.0 0.00 0.03 0.00 93 1013.1
20260905081602 21 0 0.0 0.0 0.00 0.03 0.00 93 1013.1
20260905081043 21 0 0.0 0.0 0.00 0.03 0.00 93 1013.2
20260905080544 21 0 0.0 0.0 0.00 0.03 0.00 93 1013.3
20260905080107 21 0 0.0 0.0 0.00 0.03 0.00 93 1013.2
20260905075544 21 0 0.0 0.0 0.00 0.03 0.00 93 1013.2
20260905075042 21 0 0.0 0.0 0.00 0.03 0.00 93 1013.3
20260905074614 21 0 0.0 0.0 0.00 0.03 0.00 93 1013.2
20260905074045 21 0 0.0 0.0 0.00 0.03 0.00 93 1013.3
20260905073544 21 0 0.0 0.0 0.00 0.03 0.00 93 1013.2
20260905073059 21 0 0.0 0.0 0.00 0.03 0.00 93 1013.2
20260905072544 21 0 0.0 0.0 0.00 0.03 0.00 93 1013.3
20260905072044 21 0 0.0 0.0 0.00 0.03 0.00 93 1013.3
20260905071607 21 0 0.0 0.0 0.00 0.03 0.00 93 1013.3
20260905071046 21 0 0.0 0.0 0.00 0.03 0.00 93 1013.4
20260905070546 21 0 0.0 0.0 0.00 0.03 0.00 93 1013.4
20260905070110 21 0 0.0 0.0 0.00 0.03 0.00 93 1013.5
20260905065547 21 0 0.0 0.0 0.00 0.03 0.00 93 1013.5
20260905065047 21 0 0.0 0.0 0.00 0.03 0.00 93 1013.5
20260905064557 21 0 0.0 0.0 0.00 0.03 0.00 93 1013.4
20260905064045 22 0 0.0 0.0 0.00 0.03 0.00 93 1013.3
20260905063547 22 0 0.0 0.0 0.00 0.03 0.00 94 1013.3
20260905063059 22 0 0.0 0.0 0.00 0.03 0.00 94 1013.2
20260905062546 22 0 0.0 0.0 0.00 0.03 0.00 94 1013.3
20260905062046 22 0 0.0 0.0 0.00 0.03 0.00 94 1013.3
20260905061613 22 0 0.0 0.0 0.00 0.03 0.00 94 1013.3
20260905061047 22 0 0.0 0.0 0.00 0.03 0.00 94 1013.3
20260905060546 22 0 0.0 0.0 0.00 0.03 0.00 94 1013.2
20260905060059 21 0 0.0 0.0 0.00 0.03 0.00 92 1013.1
20260905055547 22 0 0.0 0.0 0.00 0.03 0.00 92 1013.5
20260905055048 22 0 0.0 0.0 0.00 0.03 0.00 92 1013.6
20260905054601 22 0 0.0 0.0 0.00 0.03 0.00 92 1013.6
20260905054046 22 0 0.0 0.0 0.00 0.03 0.00 92 1013.7
20260905053547 22 0 0.0 0.0 0.00 0.03 0.00 92 1013.7
20260905053057 22 0 0.0 0.0 0.00 0.03 0.00 92 1013.7
20260905052546 22 0 0.0 0.0 0.00 0.03 0.00 92 1013.8
20260905052049 22 0 0.0 0.0 0.00 0.03 0.00 92 1013.8
20260905051556 22 0 0.0 0.0 0.00 0.03 0.00 92 1013.8
20260905051046 22 0 0.0 0.0 0.00 0.03 0.00 92 1013.9
20260905050546 22 0 0.0 0.0 0.00 0.03 0.00 92 1013.9
20260905050104 22 0 0.0 0.0 0.00 0.03 0.00 92 1014.0
20260905045546 22 0 0.0 0.0 0.00 0.03 0.03 92 1014.0
20260905045049 22 0 0.0 0.0 0.00 0.03 0.03 92 1014.0
20260905044555 22 0 0.0 0.0 0.00 0.03 0.03 92 1014.1
20260905044046 22 0 0.0 0.0 0.00 0.03 0.03 92 1014.0
20260905043545 22 0 0.0 0.0 0.00 0.03 0.03 91 1014.1
20260905043102 22 0 0.0 0.0 0.00 0.03 0.03 91 1014.0
20260905042544 22 0 0.0 0.0 0.00 0.03 0.03 91 1013.9
20260905042045 22 0 0.0 0.0 0.00 0.03 0.03 91 1013.8
20260905041606 22 0 0.0 0.0 0.00 0.03 0.03 91 1013.7
20260905041046 22 0 0.0 0.0 0.00 0.03 0.03 91 1013.8
20260905040544 22 0 0.0 0.0 0.00 0.03 0.03 91 1013.9
20260905040100 22 0 0.0 0.0 0.00 0.03 0.03 91 1013.7
20260905035542 22 0 0.0 0.0 0.00 0.03 0.03 91 1013.4
20260905035042 22 0 0.0 0.0 0.00 0.03 0.03 91 1013.5
20260905034601 22 0 0.0 0.0 0.00 0.03 0.03 90 1013.3
20260905034041 22 0 0.0 0.0 0.00 0.03 0.03 90 1013.4
20260905033544 22 0 0.0 0.0 0.00 0.03 0.03 90 1013.5
20260905033101 22 0 0.0 0.0 0.00 0.03 0.03 90 1013.6
20260905032545 22 0 0.0 0.0 0.00 0.03 0.03 89 1013.6
20260905032043 22 0 0.0 0.0 0.00 0.03 0.03 89 1013.8
20260905031558 22 0 0.0 0.0 0.00 0.03 0.03 89 1014.0
20260905031044 22 0 0.0 0.0 0.00 0.03 0.03 89 1014.0
20260905030544 22 0 0.0 0.0 0.00 0.03 0.03 89 1014.1
20260905030106 22 0 0.0 0.0 0.00 0.03 0.03 89 1014.1
20260905025542 22 0 0.0 0.0 0.00 0.03 0.03 89 1013.9
20260905025047 23 0 0.0 0.0 0.00 0.03 0.03 89 1014.0
20260905024605 23 0 0.0 0.0 0.00 0.03 0.03 89 1013.9
20260905024042 23 0 0.0 0.0 0.00 0.03 0.03 88 1013.9
20260905023543 23 0 0.0 0.0 0.00 0.03 0.03 88 1014.0
20260905023107 23 0 0.0 0.0 0.00 0.03 0.03 88 1014.0
20260905022541 23 0 0.0 0.0 0.00 0.03 0.03 88 1014.0
20260905022042 23 0 0.0 0.0 0.00 0.03 0.03 88 1014.0
20260905021606 23 0 0.0 0.0 0.00 0.03 0.03 88 1014.0
20260905021046 23 0 0.0 0.0 0.00 0.03 0.03 88 1014.0
20260905020544 23 0 0.0 0.0 0.00 0.03 0.03 87 1013.8
20260905015543 23 0 0.0 0.0 0.00 0.03 0.03 87 1014.0
20260905015043 23 0 0.0 0.0 0.00 0.03 0.03 87 1014.0
20260905014603 23 0 0.0 0.0 0.00 0.03 0.03 86 1013.9
20260905014043 23 0 0.0 0.0 0.00 0.03 0.03 86 1014.0
20260905013545 24 0 0.0 0.0 0.00 0.03 0.03 86 1014.1
20260905013102 24 0 0.0 0.0 0.00 0.03 0.03 86 1014.1
20260905012545 24 0 0.0 1.6 0.00 0.03 0.03 85 1014.0
20260905012044 24 0 0.0 8.0 0.00 0.03 0.03 85 1013.9
20260905011608 24 5 0.0 8.0 0.00 0.03 0.03 85 1014.0
20260905011044 24 0 1.6 8.0 0.00 0.03 0.03 85 1013.8
20260905010546 25 0 0.0 4.8 0.00 0.03 0.03 84 1013.7
20260905010111 25 0 0.0 6.4 0.00 0.03 0.03 84 1013.4
20260905005543 25 0 0.0 6.4 0.00 0.03 0.03 84 1013.3
20260905005043 25 355 0.0 6.4 0.00 0.03 0.03 83 1013.3
20260905004603 25 29 0.0 6.4 0.00 0.03 0.03 83 1013.1
20260905004045 25 14 1.6 6.4 0.00 0.03 0.03 83 1012.9
20260905003550 25 38 1.6 4.8 0.00 0.03 0.03 82 1012.9
20260905003103 25 0 0.0 4.8 0.00 0.03 0.03 82 1012.7
20260905002545 26 0 0.0 8.0 0.00 0.03 0.03 82 1012.7
20260905002047 26 0 1.6 8.0 0.00 0.03 0.03 81 1012.7
20260905001602 26 19 1.6 8.0 0.00 0.03 0.03 80 1012.6
20260905001047 26 0 1.6 6.4 0.00 0.03 0.03 80 1012.7
20260905000544 26 0 1.6 6.4 0.00 0.03 0.03 79 1012.7
20260904235548 27 0 0.0 4.8 0.00 0.03 0.03 79 1012.7
20260904235046 27 0 0.0 6.4 0.00 0.03 0.03 80 1012.7
20260904234600 27 0 0.0 6.4 0.00 0.03 0.03 80 1012.7
20260904234044 27 0 0.0 6.4 0.00 0.03 0.03 81 1012.7
20260904233546 28 0 0.0 3.2 0.00 0.03 0.03 83 1012.5
20260904233101 28 0 0.0 0.0 0.00 0.03 0.03 85 1012.4
20260904232548 28 0 0.0 1.6 0.00 0.03 0.03 84 1012.1
20260904232048 28 0 0.0 1.6 0.00 0.03 0.03 84 1012.0
20260904231602 28 0 0.0 0.0 0.00 0.03 0.03 84 1012.0
20260904231046 28 0 0.0 0.0 0.00 0.03 0.03 83 1012.0
20260904230547 28 0 0.0 0.0 0.00 0.03 0.03 82 1012.2
20260904230110 28 0 0.0 0.0 0.00 0.03 0.03 82 1012.2
20260904225546 28 0 0.0 0.0 0.00 0.03 0.03 82 1012.2
20260904225047 28 0 0.0 0.0 0.00 0.03 0.03 82 1012.1
20260904224610 28 0 0.0 0.0 0.00 0.03 0.03 81 1012.0
20260904224050 29 0 0.0 0.0 0.00 0.03 0.03 80 1012.2
20260904223547 29 0 0.0 0.0 0.00 0.03 0.03 79 1012.1
20260904223102 29 0 0.0 0.0 0.00 0.03 0.03 79 1012.1
20260904222547 29 0 0.0 0.0 0.00 0.03 0.03 78 1012.2
20260904222048 29 0 0.0 0.0 0.00 0.03 0.03 78 1012.3
20260904221604 29 0 0.0 0.0 0.00 0.03 0.03 78 1012.3
20260904221047 29 0 0.0 0.0 0.00 0.03 0.03 77 1012.3
20260904220546 29 0 0.0 1.6 0.00 0.03 0.03 77 1012.3
20260904220107 29 0 0.0 3.2 0.00 0.03 0.03 78 1012.3
20260904215546 29 0 0.0 3.2 0.00 0.03 0.03 78 1012.3
20260904215046 29 0 0.0 3.2 0.00 0.03 0.03 78 1012.1
20260904214603 29 0 0.0 3.2 0.00 0.03 0.03 77 1012.4
20260904214046 29 178 0.0 6.4 0.00 0.03 0.03 78 1012.1
20260904213546 29 197 1.6 8.0 0.00 0.03 0.03 77 1012.1
20260904213107 29 177 1.6 8.0 0.00 0.03 0.03 77 1012.1
20260904212546 29 186 3.2 8.0 0.00 0.03 0.03 78 1012.0